User: anonymous   Login
Location: Unspecified
(0.0000°N, 0.0000°E)
Time: 00:57:38
(UTC+00:00)
Language:

STARLINK-32364 - Orbit

View from above orbital plane
View from above orbital plane
View from above satellite
View from above satellite

Ground track
Ground track

The orbit is defined by the following mean orbital elements,

1 61622U          26144.83735782 +.00000000 +00000-0 +34177-4 0 00006
2 61622  43.0029  84.3372 0001191 272.2104  87.8611 15.27577034    06
Epoch (UTC): 24 May 2026 20:05:47
Eccentricity: 0.0001191
inclination: 43.0029°
perigee height: 482 km
apogee height: 484 km
right ascension of ascending node: 84.3372°
argument of perigee: 272.2104°
revolutions per day: 15.27577034
mean anomaly at epoch: 87.8611°

The dashed part of the orbit path shows where the satellite is in the earth's shadow,  

DLR